{"data":{"norad_id":27704,"epoch":"2026-05-20T13:40:33.306816Z","epoch_age_seconds":458094,"freshness":"STALE","line1":"1 27704U 03010A   26140.56982994 -.00000076  00000+0  00000+0 0  9991","line2":"2 27704  54.8300 326.1803 0003007   1.9314 320.9052  1.94743016169375","mean_motion":1.94743016,"eccentricity":0.0003007,"inclination_deg":54.83,"raan_deg":326.1803,"arg_perigee_deg":1.9314,"mean_anomaly_deg":320.9052,"bstar":0,"rev_number":16937,"period_min":739.43601653987,"perigee_km":20700.69751678,"apogee_km":20716.987626294,"semimajor_km":27086.979571537,"source":"CELESTRAK","updated_at":"2026-05-25T13:37:55.032601Z"}}